Location: Les Routes
(43.1382°N, 5.9010°E)
Time: 09:36:56
(UTC+00:00)

Daily predictions for brighter satellites

Satellite Brightness Start Highest point End
(mag) Time Altitude Azimuth Time Altitude Azimuth Time Altitude Azimuth
Meteor 1-19 Rocket 4.3 19:31:35 10° S 19:37:13 84° E 19:43:05 10° NNE
STARLINK-1100 4.1 19:36:04 10° NW 19:40:09 54° NNE 19:44:13 10° ESE
ISS -3.4 19:36:52 10° NW 19:40:13 61° NNE 19:43:32 10° ESE
STARLINK-1237 3.9 19:37:48 10° WSW 19:41:56 76° NNW 19:46:06 10° NE
Okean 1 4.4 19:38:01 10° SSW 19:41:57 50° WNW 19:45:54 10° N
COSMOS 2406 3.5 19:36:38 10° NNW 19:42:24 75° WSW 19:48:07 10° SSE
Cosmos 1975 2.9 19:39:09 10° N 19:43:12 89° W 19:47:13 10° S
CZ-2C R/B 2.8 19:38:46 10° NNE 19:44:24 74° ESE 19:50:00 10° S
ARGOS 4.1 19:39:45 10° S 19:44:57 49° W 19:50:11 10° NNW
STARLINK-1083 4.0 19:41:04 10° NW 19:45:10 58° NNE 19:49:15 10° ESE
Meteor 2-4 Rocket 3.7 19:41:02 10° S 19:46:17 61° E 19:51:35 10° NNE
STARLINK-1202 4.0 19:42:48 10° WSW 19:46:56 70° NNW 19:51:04 10° NE
NOSS 2-2 (E) 4.5 19:45:21 10° SSE 19:47:56 19° ESE 19:50:37 10° ENE
EXPRESS MD2 3.2 19:46:23 10° SSW 19:48:52 40° SE 19:52:56 10° ENE
STARLINK-1125 3.9 19:46:03 10° NW 19:50:10 63° NNE 19:54:16 10° ESE
Tsikada Rocket 4.4 19:46:23 10° SSW 19:52:31 68° W 19:58:40 10° N
Cosmos 2297 4.5 19:47:54 10° SSE 19:52:47 31° ESE 19:57:43 10° NE
Cosmos 1943 Rocket 3.9 19:51:09 10° ESE 19:53:33 13° E 19:55:58 10° ENE
Cosmos 1833 Rocket 2.7 19:48:14 10° NNW 19:53:53 87° ENE 19:59:30 10° SSE
STARLINK-1109 3.8 19:51:01 10° NW 19:55:09 68° NNE 19:59:16 10° ESE
STARLINK-1246 4.3 19:52:49 10° WSW 19:56:55 60° NNW 20:01:02 10° NE
Cosmos 1420 Rocket 4.1 19:53:54 10° SSW 19:59:06 86° WNW 20:04:20 10° NNE
Cosmos 1452 Rocket 3.5 19:54:10 10° S 19:59:23 67° ESE 20:04:39 10° NNE
Cosmos 332 Rocket 4.0 19:55:00 10° S 19:59:44 51° ESE 20:04:28 10° NNE
BREEZE-M DEB 3.2 19:58:14 10° S 19:59:58 20° SE 20:02:22 10° E
STARLINK-1091 3.7 19:55:58 10° NW 20:00:06 73° NE 20:04:04 11° ESE
Cosmos 2082 Rocket 2.4 19:54:50 10° NNW 20:00:32 62° ENE 20:06:02 11° SE
STARLINK-1224 4.4 19:57:49 10° WSW 20:01:54 56° NNW 20:05:59 10° NE
DMSP B5D2-2 4.4 19:56:38 10° N 20:01:55 75° WNW 20:07:10 10° SSW
Intercosmos 24 4.1 20:00:08 10° N 20:03:35 45° E 20:07:17 10° SSE
STARLINK-1072 3.7 20:00:58 10° NW 20:05:07 79° NE 20:08:52 12° ESE
Cosmos 1461 3.0 20:02:02 10° SSW 20:06:02 53° ESE 20:10:13 10° NE
MOS 1 Rocket 4.3 20:03:21 10° N 20:07:32 46° WNW 20:11:37 10° SW
Okean 3 3.5 20:04:02 10° S 20:08:19 88° W 20:12:39 10° N
Cosmos 1544 4.3 20:04:55 10° NNW 20:08:21 41° W 20:11:44 10° SSW
Cosmos 2369 Rocket 4.0 20:07:22 11° ESE 20:09:27 13° E 20:11:50 10° ENE
STARLINK-1096 3.6 20:05:56 10° NW 20:10:05 86° NE 20:13:39 14° SE
NOSS 2-2 (C) 4.0 20:09:22 10° S 20:12:24 27° ESE 20:15:34 10° ENE
SAR-Lupe-2 4.5 20:09:14 10° NE 20:12:27 30° E 20:15:10 13° SSE
STARLINK-1079 3.6 20:10:54 10° NW 20:15:04 88° SSW 20:18:26 15° SE
Cosmos 2221 Rocket 3.8 20:11:41 10° S 20:16:12 80° W 20:20:46 10° N
ATLAS 2AS CENTAUR R/B 4.5 20:13:12 12° SE 20:16:12 15° ESE 20:20:08 10° ENE
SL-4 R/B 2.2 20:15:20 10° NW 20:18:11 39° WSW 20:20:30 12° S
SPOT 5 4.4 20:14:18 12° ESE 20:18:11 26° ENE 20:22:33 10° N
NOSS 8 (F) 4.4 20:16:24 10° SW 20:19:44 76° NW 20:22:46 10° NNE
Meteor 1-13 Rocket 4.2 20:14:11 10° S 20:19:47 78° E 20:25:32 10° NNE
STARLINK-1116 3.6 20:15:53 10° NW 20:20:02 81° SW 20:23:13 17° SE
ERS-1 Rocket 4.0 20:19:40 14° ESE 20:23:18 31° ENE 20:27:43 10° N
Cosmos 1066 Rocket 4.4 20:22:28 10° SSE 20:27:30 46° E 20:32:36 10° NNE
USA 245 2.8 20:27:56 21° SE 20:29:40 48° ENE 20:32:12 10° N
STARLINK-1094 3.7 20:25:52 10° WNW 20:30:00 68° SW 20:32:47 20° SE
Cosmos 2278 Rocket 3.7 20:27:07 10° SW 20:32:24 39° WNW 20:37:45 10° NNE
TSX-5 4.4 20:26:42 10° SSW 20:32:35 86° ESE 20:37:06 10° NNE
Resurs 01 Rocket 2.3 20:28:45 10° S 20:33:05 52° W 20:37:27 10° NNW
Nadezhda 4 Rocket 4.2 20:28:28 12° SSE 20:33:57 50° E 20:39:50 10° NNE
STARLINK-1117 3.8 20:30:51 10° WNW 20:34:57 62° SW 20:37:34 21° SE
GPS 2-04 Rocket1 3.7 20:32:06 10° WSW 20:34:59 24° S 20:35:57 21° SSE
Okean 1 Rocket 3.6 20:30:54 10° N 20:35:12 44° ENE 20:37:54 20° SE
Cosmos 1741 Rocket 4.0 20:30:32 10° NNW 20:35:47 87° ENE 20:39:49 17° SSE
Okean 2 Rocket 3.7 20:31:35 10° NNW 20:35:54 54° W 20:40:10 10° S
MetOp-B 4.2 20:32:01 13° SSE 20:36:55 86° W 20:42:17 10° NNW
STARLINK-1078 3.9 20:35:51 10° WNW 20:39:55 57° SW 20:42:21 22° SSE
SL-8 R/B 4.1 20:37:14 10° WNW 20:41:59 60° NNE 20:46:17 13° E
Cosmos 2279 Rocket 4.2 20:37:48 10° NNW 20:44:01 71° W 20:50:10 10° S
Cosmos 371 Rocket 4.5 20:39:38 10° SW 20:44:17 45° WNW 20:48:59 10° N
STARLINK-1108 4.0 20:40:51 10° WNW 20:44:53 52° SW 20:47:08 24° SSE
Cosmos 1850 Rocket 4.2 20:40:00 10° NNW 20:45:21 75° WSW 20:49:25 18° S
SL-4 R/B 3.2 20:41:57 10° SSW 20:45:59 29° SE 20:50:08 10° ENE
Cosmos 1110 Rocket 3.9 20:41:11 10° S 20:46:19 68° ESE 20:51:28 10° NNE
ATLAS 3B CENTAUR R/B 4.0 20:34:02 10° WSW 20:46:31 31° S 20:50:57 20° SE
Terra 2.9 20:44:22 18° ESE 20:46:58 31° ENE 20:51:07 10° N
STARLINK-1121 4.4 20:43:07 10° NW 20:47:08 46° NNE 20:50:08 16° E
Spot 2 Rocket 3.5 20:44:03 16° SSE 20:48:03 83° WSW 20:53:08 10° NNW
SPOT 1/Viking Rocket 3.5 20:45:17 20° SSE 20:48:56 73° ENE 20:54:05 10° N
STARLINK-1071 4.1 20:45:52 10° WNW 20:49:51 47° SW 20:51:55 25° SSE
CARTOSAT-1 4.0 20:47:49 23° SE 20:50:08 47° ENE 20:54:17 10° N
Abrixas rocket 2.1 20:47:37 10° WNW 20:50:33 65° NNE 20:51:50 29° E
Cosmos 2151 Rocket 4.2 20:46:13 10° NNW 20:50:39 55° W 20:54:34 13° S
STARLINK-1106 4.3 20:48:07 10° NW 20:52:09 49° NNE 20:54:56 19° E
STARLINK-1110 4.2 20:49:40 10° WNW 20:53:37 44° SW 20:55:32 25° SSE
STARLINK-1112 4.2 20:53:03 10° NW 20:57:07 53° NNE 20:59:42 21° E
Aureole 2 3.9 20:56:41 10° NNW 20:59:46 89° ENE 21:00:36 43° SSE
STARLINK-1124 4.4 20:55:54 10° WNW 20:59:46 39° SW 21:01:29 26° S
STARLINK-1128 4.1 20:58:01 10° NW 21:02:07 57° NNE 21:04:28 23° ESE
Cosmos 1331 Rocket 3.9 20:57:57 10° SSW 21:03:06 85° ESE 21:08:19 10° NNE
Aureole 2 Rocket 3.5 21:01:07 10° SW 21:04:03 38° WNW 21:06:53 10° N
deb Kosmos-1763 4.1 21:01:55 10° NNW 21:05:31 69° WSW 21:06:57 33° S
STARLINK-1113 3.9 21:02:59 10° NW 21:07:07 61° NNE 21:09:15 26° ESE
Cosmos 1733 3.9 21:04:58 10° N 21:08:34 38° ENE 21:09:32 32° ESE
Cosmos 1437 Rocket 4.2 21:05:24 10° SW 21:08:52 34° WNW 21:12:24 10° N
Cosmos 1378 3.0 21:09:41 32° S 21:11:18 81° E 21:15:02 10° N
STARLINK-1119 3.8 21:07:59 10° NW 21:12:07 66° NNE 21:14:04 29° ESE
Cosmos 1302 Rocket 4.1 21:10:13 24° S 21:13:13 55° ESE 21:18:24 10° NNE
Cosmos 1242 Rocket 4.0 21:15:26 23° E 21:15:26 23° E 21:18:18 10° NE
ISS -1.9 21:14:17 10° W 21:16:42 19° SW 21:17:02 18° SW
STARLINK-1114 3.7 21:12:56 10° NW 21:17:05 71° NNE 21:18:49 33° ESE
MTI 4.4 21:16:15 10° NNE 21:18:58 37° E 21:18:58 37° E
Cosmos 1092 Rocket 3.9 21:15:30 23° S 21:19:25 71° E 21:25:33 10° NNE
Lacrosse 5 3.4 21:15:49 10° WNW 21:19:50 24° WSW 21:22:07 17° SSW
NOSS 2-2 (D) 3.8 21:17:14 10° SW 21:20:43 54° NW 21:24:34 10° NNE
STARLINK-1130 (DARKSAT) 3.6 21:17:55 10° NW 21:22:04 77° NE 21:23:37 37° ESE
CENTAUR R/B 3.8 21:16:57 10° NNW 21:24:42 50° NE 21:31:08 18° ESE
STARLINK-1084 3.6 21:22:54 10° NW 21:27:04 83° NE 21:28:24 42° ESE
ATLAS 3B R/B 4.3 21:21:51 10° NNW 21:27:29 27° NE 21:33:15 10° E
SL-27 R/B 3.1 21:25:35 10° N 21:29:00 40° ENE 21:29:28 38° E
NOSS 3-2 (C) 4.4 21:22:37 10° NNW 21:30:01 57° NE 21:35:37 22° ESE
Cosmos 1766 3.3 21:27:36 10° N 21:31:36 81° W 21:32:47 45° S
STARLINK-1098 3.5 21:27:52 10° NW 21:32:02 90° NE 21:33:11 47° SE
Cosmos 2195 Rocket 4.4 21:30:45 26° S 21:34:31 80° E 21:40:49 10° N
Cosmos 1943 Rocket 2.1 21:31:46 15° SSW 21:36:26 86° WNW 21:42:04 10° NNE
STARLINK-1123 3.5 21:32:50 10° NW 21:37:00 84° SW 21:37:57 52° SE
NOSS 3-4 (A) 3.8 21:36:31 34° SSE 21:37:57 39° ESE 21:43:38 10° NE
NOSS 3-4 (C) 3.8 21:36:41 34° SE 21:38:03 39° ESE 21:43:44 10° NE
Cosmos 1900 4.3 21:34:11 10° NW 21:39:15 79° WSW 21:41:01 41° SSE
Cosmos 1428 Rocket 4.5 21:36:33 31° S 21:39:42 70° E 21:45:57 10° NNE
STARLINK-1097 3.5 21:37:51 10° WNW 21:42:00 77° SW 21:42:45 57° SSE
Cosmos 2082 Rocket 4.2 21:40:05 10° NW 21:44:03 20° W 21:47:54 10° SW
SeaSat 1 3.3 21:40:15 10° NE 21:44:35 31° ESE 21:44:35 31° ESE
Cosmos 1975 Rocket 3.1 21:44:36 38° SSW 21:46:17 77° W 21:50:42 10° N
STARLINK-1099 3.5 21:42:50 10° WNW 21:46:58 70° SW 21:47:31 60° SSE
Cosmos 292 Rocket 3.7 21:48:20 44° S 21:49:47 72° ESE 21:54:39 10° NNE
BREEZE-M DEB (TANK) 4.2 21:33:59 10° WSW 21:50:35 68° NNW 21:54:42 10° ENE
STARLINK-1104 3.6 21:47:48 10° WNW 21:51:55 64° SW 21:52:18 60° S
BREEZE-M DEB (TANK) 4.5 21:48:25 10° WNW 21:52:07 35° N 21:55:35 10° ENE
Cosmos 2369 Rocket 2.1 21:49:04 24° SSW 21:52:37 89° WNW 21:58:18 10° NNE
SPOT 5 3.8 21:53:31 27° SSW 21:55:58 44° W 22:01:05 10° NNW
STARLINK-1144 3.7 21:52:49 10° WNW 21:56:54 59° SW 21:57:05 58° SSW
ATLAS CENTAUR R/B 2.5 21:59:35 31° E 21:59:35 31° E 22:02:26 10° NE
Aureole 3 Rocket 4.4 21:53:21 10° N 21:59:49 76° E 22:03:54 34° SSE
STARLINK-1103 3.8 21:57:48 10° WNW 22:01:51 53° SW 22:01:51 53° SW
ERS-1 Rocket 4.2 21:59:40 22° SW 22:02:01 32° W 22:06:33 10° NNW
Cosmos 1340 Rocket 4.3 21:58:51 10° NNE 22:02:13 24° ENE 22:02:31 24° E
Cosmos 1025 Rocket 3.2 22:02:58 52° ESE 22:03:10 53° E 22:07:21 10° NNE
Okean 2 4.5 22:02:00 27° SW 22:03:43 41° WNW 22:07:40 10° N
Cosmos 2026 Rocket 4.1 22:00:24 28° SSW 22:03:53 73° W 22:10:16 10° N
ATLAS 2AS CENTAUR R/B 3.0 22:00:30 23° SSW 22:05:54 70° ESE 22:13:50 10° NE
Thor Agena Rocket 3.7 22:00:48 10° NNE 22:06:03 60° ESE 22:07:11 48° SSE
Cosmos 1656 Rocket 3.7 22:04:50 46° SSE 22:06:16 61° ESE 22:11:46 10° NNE
STARLINK-1101 4.0 22:02:48 10° WNW 22:06:38 48° SW 22:06:38 48° SW
BREEZE M DEB (TANK) 4.3 22:04:10 10° W 22:07:12 26° NNW 22:08:33 15° NE
Cosmos 1553 Rocket 3.9 22:03:16 10° N 22:09:34 77° E 22:11:43 43° SSE
BREEZE-M DEB (TANK) 4.1 21:56:50 10° WNW 22:09:54 75° NNE 22:11:56 33° E
STARLINK-1228 4.4 22:07:11 10° NW 22:10:28 37° NNE 22:11:08 33° NE
Cosmos 1953 3.2 22:06:58 10° N 22:10:40 35° ENE 22:10:41 35° ENE
APEX 4.3 22:06:47 25° SSW 22:10:46 85° WNW 22:16:18 10° NNE
NOSS 3-2 (A) 4.2 22:03:49 10° NW 22:11:26 67° WSW 22:15:11 36° S
STARLINK-1102 4.2 22:07:49 10° WNW 22:11:26 43° WSW 22:11:26 43° WSW
Cosmos 1470 2.5 22:07:55 10° N 22:11:48 87° ENE 22:11:51 86° ESE
STARLINK-1235 4.4 22:09:55 10° NW 22:12:55 34° NNE 22:13:12 33° NE
Cosmos 968 Rocket 3.3 22:11:14 10° NNW 22:16:25 88° ENE 22:17:31 56° SSE
STARLINK-1111 4.4 22:12:49 10° WNW 22:16:12 38° WSW 22:16:12 38° WSW
Cosmos 1655 Rocket 4.0 22:15:01 44° SSE 22:16:57 65° E 22:23:08 10° NNE
Cosmos 1455 Rocket 3.6 22:14:29 10° NNW 22:18:40 48° W 22:19:25 42° SW
ATLAS 5 CENTAUR R/B 1.9 22:14:42 10° SW 22:21:46 63° ENE 22:23:51 10° NE
USA 238 DEB 4.1 22:16:07 10° NW 22:23:11 56° WSW 22:25:51 38° S
USA 238 4.1 22:16:13 10° NW 22:23:17 57° WSW 22:25:58 38° S
SL-8 R/B 4.1 22:19:54 10° WNW 22:24:13 45° SW 22:24:13 45° SW
Terra 3.1 22:23:15 25° SW 22:24:40 30° W 22:28:51 10° NW
Cosmos 1758 3.3 22:21:15 10° NNW 22:25:19 76° W 22:25:25 75° WSW
SL-4 R/B 2.7 22:20:42 10° WSW 22:25:28 68° NNW 22:30:19 10° NE
STARLINK-1234 4.1 22:27:36 10° NW 22:30:16 43° N 22:30:16 43° N
In-Cosmos 22 4.2 22:30:05 52° SE 22:30:49 57° E 22:36:00 10° NNE
Cosmos 2266 Rocket 4.0 22:33:43 49° SSE 22:35:14 65° E 22:41:13 10° NNE
Cosmos 1503 Rocket 3.9 22:31:15 10° NNW 22:36:35 86° WSW 22:37:35 61° SSE
STARLINK-1209 4.2 22:33:43 10° NW 22:36:13 43° NNW 22:36:13 43° NNW
Meteor 2-8 Rocket 4.4 22:36:13 10° N 22:42:23 81° W 22:44:07 50° S
Cosmos 1536 Rocket 3.8 22:45:44 56° WSW 22:46:08 59° W 22:50:26 10° N
Cosmos 1674 3.7 22:48:20 37° ENE 22:48:20 37° ENE 22:51:07 10° NNE
Cosmos 1271 Rocket 4.0 22:49:29 32° W 22:49:55 33° WNW 22:53:30 10° N
Spot 4 4.0 22:53:29 58° SW 22:53:59 62° WSW 22:58:48 10° NNW
COSMOS 2455 2.8 22:52:50 46° SSW 22:54:46 87° WNW 23:00:50 10° NNE
Cosmos 1354 Rocket 4.0 22:50:37 10° NNW 22:55:53 67° WSW 22:56:35 60° SSW
Cosmos 883 Rocket 4.4 22:51:17 10° N 22:57:27 80° E 22:58:57 54° SSE
USA 215 3.7 22:52:57 17° ESE 22:58:06 60° NNE 23:04:32 10° NW
Cosmos 1707 4.0 22:59:44 32° W 22:59:56 32° WNW 23:03:29 10° N
Cosmos 1833 4.4 22:54:54 10° NNW 23:00:23 54° WSW 23:01:10 50° SW
Helios 1A 3.7 23:01:35 43° ENE 23:01:42 43° ENE 23:05:41 10° N
Cosmos 2297 Rocket 4.2 22:58:38 10° N 23:02:58 22° NE 23:07:00 11° E
ALOS 2 2.5 23:07:47 86° WNW 23:07:47 86° WNW 23:12:10 10° NNW
Cosmos 1726 3.1 23:04:23 10° NNW 23:07:20 43° WNW 23:07:20 43° WNW
Timation 2 Rocket 4.3 23:04:31 10° NNW 23:10:45 58° ENE 23:12:55 38° ESE
COSMOS 2487 3.8 23:08:16 10° NNW 23:10:32 36° NW 23:10:32 36° NW
Cosmos 2058 Rocket 4.1 23:07:36 10° N 23:11:43 35° ENE 23:11:58 35° E
Meteor 2-5 Rocket 3.7 23:14:12 56° SE 23:14:57 62° E 23:20:30 10° NNE
CENTAUR R/B 3.5 23:07:45 10° NW 23:15:39 51° WSW 23:18:18 40° SSW
Meteor 1-16 Rocket 4.2 23:11:40 10° NNW 23:17:04 61° W 23:17:49 55° SW
Cosmos 1867 3.8 23:13:18 10° NW 23:18:35 51° WSW 23:18:45 51° SW
ATLAS 3B R/B 2.6 23:12:05 10° NW 23:18:57 85° WSW 23:21:09 48° SSE
Cosmos 1606 Rocket 3.5 23:17:28 10° N 23:21:36 81° N 23:21:36 81° N
SeaSat 1 3.6 23:17:35 10° NNE 23:22:08 38° NW 23:24:20 25° WSW
Cosmos 2098 Rocket 4.3 23:20:08 47° SSW 23:22:29 84° W 23:30:01 10° N
NOSS 3-4 (A) 4.5 23:23:52 14° WSW 23:28:46 41° NW 23:34:46 10° NNE
ATLAS CENTAUR R/B 3.9 23:27:01 10° N 23:28:47 17° NE 23:31:23 10° E
NOSS 3-4 (C) 4.5 23:24:01 14° WSW 23:28:51 42° NW 23:34:54 10° NNE
RESURS DK-1 2.5 23:29:48 69° NNW 23:29:48 69° NNW 23:33:36 10° NNE
STARLINK-1271 4.4 23:27:02 10° NW 23:31:05 50° NNE 23:31:49 44° ENE
Cosmos 2084 3.5 23:33:36 79° NW 23:33:36 79° NW 23:38:02 10° NE
Cosmos 1626 3.0 23:36:00 45° NE 23:36:00 45° NE 23:38:50 10° NNE
BREEZE-M R/B 3.6 23:31:45 31° SW 23:35:22 78° SSE 23:39:26 10° ENE
Cosmos 2315 Rocket 4.1 23:29:28 10° NNW 23:35:36 65° W 23:36:58 51° SSW
STARLINK-1154 4.2 23:31:59 10° NW 23:36:04 54° NNE 23:36:35 50° ENE
ATLAS CENTAUR R/B 3.2 23:35:42 20° W 23:37:30 27° NW 23:41:05 10° NNE
Okean 1-7 Rocket 3.6 23:37:39 74° E 23:37:39 74° E 23:42:04 10° NNE
Cosmos 1340 Rocket 4.5 23:35:13 10° NW 23:38:06 25° W 23:38:06 25° W
Cosmos 2227 Rocket 3.5 23:35:01 10° N 23:40:11 34° NE 23:43:29 19° ESE
STARLINK-1197 4.1 23:36:56 10° NW 23:41:02 58° NNE 23:41:21 56° NE
Nadezhda 2 Rocket 4.3 23:39:44 57° SSW 23:41:06 87° W 23:47:17 10° N
Cosmos 1908 4.3 23:39:39 10° NNW 23:42:29 36° WNW 23:42:29 36° WNW
CZ-4 R/B 4.1 23:39:06 10° NNE 23:43:46 54° E 23:43:50 54° ESE
STARLINK-1198 3.9 23:41:54 10° NW 23:46:02 62° NNE 23:46:07 62° NE
Cosmos 1953 4.5 23:44:12 10° NW 23:46:22 16° W 23:46:22 16° W
STARLINK-1199 3.9 23:46:54 10° NW 23:50:55 67° NNE 23:50:55 67° NNE
Meteor 2-21 Rocket 4.4 23:50:06 56° S 23:51:30 80° E 23:57:43 10° N
Landsat 4 4.3 23:47:54 10° N 23:51:00 51° NNW 23:51:00 51° NNW
